Temperature
23 20 20 20 20 21 20 20 20 21 22 21 20 20 19 20 21 20 20 20 20 19 19 18 18 17 17 16 16 15 15 14 14 14 14 14 14 14 13 13 13 13 13 13
20 20 21 21 22 21 21 21 21 21 22 21 20 20 20 20 20 21 21 20 20 19 18 18 17 17 17 16 16 15 15 14 14 14 14 13 13 13 13 13 13 13 13 13
20 21 23 22 22 21 21 20 21 22 22 22 21 20 19 20 20 21 21 21 20 19 19 18 17 17 16 16 15 15 14 14 14 13 13 13 13 13 13 13 13 13 13 13
21 22 23 22 21 21 21 22 22 22 21 19 21 19 19 19 19 19 20 20 20 19 19 18 18 17 16 16 15 15 14 14 13 13 13 13 13 13 13 13 13 13 13 13
21 21 22 22 22 22 21 23 23 22 21 19 19 18 18 19 19 19 19 20 20 19 19 18 18 17 16 16 15 15 14 14 13 13 13 13 13 13 12 12 12 13 13 13
21 22 22 22 23 23 22 21 20 17 17 19 20 18 19 17 19 19 19 19 19 19 19 18 17 17 16 16 15 14 14 14 13 13 13 13 13 13 12 12 12 12 12 12
21 22 23 23 22 22 21 18 18 19 17 18 19 19 18 19 19 19 19 19 19 19 19 18 17 17 16 16 15 14 14 14 13 13 13 13 13 12 12 12 12 12 12 12
20 20 22 23 22 22 21 18 18 19 18 18 19 19 18 20 20 21 21 20 20 19 19 18 18 17 16 16 15 15 14 14 13 13 13 13 13 12 12 12 12 12 12 12
20 21 23 24 24 23 22 19 18 17 19 18 18 19 20 20 19 19 19 20 19 19 19 18 18 17 16 16 15 15 14 14 13 13 13 13 13 12 12 12 12 12 12 12
20 21 23 24 24 23 22 19 17 18 18 18 19 19 17 19 18 18 18 19 19 19 19 18 18 17 16 16 15 15 14 14 14 13 13 13 13 12 12 12 12 12 12 12
20 20 21 22 23 22 22 22 18 15 16 17 18 18 18 18 18 18 18 20 20 19 19 18 18 17 16 16 15 15 14 14 14 13 13 13 13 13 12 12 12 12 12 12
20 18 19 21 21 22 22 21 18 18 18 16 16 17 19 18 19 19 20 21 20 20 19 18 18 17 16 16 16 15 15 14 14 14 13 13 13 13 12 12 12 12 12 12
20 18 18 19 20 21 22 21 19 16 16 15 16 18 19 19 19 20 21 21 20 20 19 18 18 17 17 16 16 15 15 14 14 14 13 13 13 13 12 12 12 12 12 12
20 18 18 20 20 20 21 22 20 17 16 17 17 19 20 19 19 19 20 21 20 20 19 19 18 17 17 16 16 15 15 14 14 14 13 13 13 13 13 12 12 12 12 12
19 19 20 20 20 21 21 21 21 19 17 17 19 19 20 19 18 20 21 21 20 20 19 19 18 18 17 17 16 16 15 15 14 14 14 13 13 13 13 13 12 12 12 12
18 20 21 21 21 21 21 21 20 20 20 19 19 20 20 20 21 21 21 20 20 20 20 19 19 18 18 17 16 16 15 15 15 14 14 14 13 13 13 13 13 12 12 12
18 19 19 18 20 21 20 20 20 20 20 20 19 19 20 19 19 20 21 21 21 20 20 19 19 18 18 17 17 16 16 15 15 15 14 14 14 13 13 13 13 13 12 12
18 17 16 17 20 20 19 20 21 21 21 20 20 20 19 20 22 22 22 22 21 21 20 20 19 18 18 17 17 17 16 16 15 15 15 14 14 14 13 13 13 13 13 13
17 17 16 16 18 18 20 22 21 21 21 20 20 20 21 22 21 20 22 22 21 21 20 19 19 18 18 17 17 17 16 16 15 15 15 14 14 14 14 14 13 13 13 13
17 16 16 16 19 19 20 21 23 22 21 21 20 20 20 20 17 18 21 21 21 20 20 19 19 18 18 17 17 17 16 16 16 15 15 15 14 14 14 14 14 13 13 13
18 17 16 16 17 17 19 21 22 20 20 22 22 22 21 20 20 22 21 21 20 20 19 19 18 18 18 17 17 17 16 16 16 15 15 15 15 14 14 14 14 14 13 13
17 16 15 14 16 18 20 22 20 20 22 23 23 23 23 23 22 21 21 20 20 19 19 18 18 18 17 17 17 16 16 16 16 15 15 15 15 15 14 14 14 14 14 14
16 17 16 16 18 20 22 23 24 24 24 24 24 23 23 22 22 21 21 20 20 19 19 18 18 17 17 17 17 16 16 16 16 15 15 15 15 15 14 14 14 14 14 14
17 17 17 17 17 20 22 24 24 24 24 24 24 23 23 22 22 21 20 20 19 19 18 18 17 17 17 17 16 16 16 16 15 15 15 15 15 15 14 14 14 14 14 14
18 18 17 17 18 20 22 23 24 24 24 24 23 23 23 22 21 21 20 20 19 19 18 18 17 17 17 16 16 16 16 15 15 15 15 15 14 14 14 14 14 14 14 13
17 18 17 17 20 18 22 24 24 23 23 23 23 22 22 22 21 21 20 20 19 19 18 18 17 17 16 16 16 15 15 15 15 15 14 14 14 14 14 14 14 13 13 13
Wind_Speed
5 5 5 7 8 7 6 4 4 6 6 7 9 9 9 9 8 8 7 6 8 7 6 6 6 6 6 4 4 3 2 2 2 2 2 3 3 4 4 4 5 5 5 5
4 4 7 6 5 6 4 2 2 4 5 7 6 7 7 8 10 9 9 9 9 7 6 5 6 5 5 4 3 4 3 2 2 1 1 2 2 3 3 4 5 6 6 6
7 5 6 5 4 5 3 5 5 5 2 2 2 4 2 2 4 5 7 8 10 11 10 8 6 6 5 4 3 4 2 1 1 1 1 2 3 3 4 4 4 5 5 5
3 3 5 5 4 6 4 6 6 3 2 3 2 1 5 3 4 6 6 7 9 9 9 8 7 7 6 4 3 3 2 1 1 2 2 2 2 3 4 4 4 6 5 5
3 4 6 5 6 7 7 6 3 0 1 3 1 4 5 2 5 6 7 7 8 9 10 9 8 8 6 5 4 3 2 0 2 2 2 2 2 3 4 4 6 6 6 5
2 2 5 6 3 4 3 5 7 6 5 2 4 5 5 5 8 7 6 7 8 9 8 8 7 7 5 4 3 2 1 1 2 2 2 1 2 3 4 5 6 5 5 5
2 2 1 3 2 2 5 6 4 5 4 5 3 4 7 7 6 8 9 9 8 9 8 8 8 7 5 4 3 2 2 1 2 2 2 2 2 2 3 4 4 5 4 4
3 3 3 3 6 5 4 8 6 4 4 5 3 2 5 3 5 6 8 9 9 9 8 9 9 7 6 6 5 3 2 2 2 2 2 2 2 2 3 4 4 4 4 5
5 3 2 2 3 6 5 4 7 6 2 1 3 2 4 0 3 5 6 7 9 9 9 9 8 7 6 6 5 4 4 2 1 2 2 2 3 3 4 4 4 4 4 5
6 3 2 1 3 2 6 7 6 4 2 1 3 3 5 8 9 8 8 8 8 8 8 8 7 7 6 6 4 3 4 3 2 1 2 2 3 4 4 4 5 5 5 5
4 4 1 1 3 5 2 3 5 4 5 5 3 6 7 11 10 10 10 9 9 9 9 8 7 6 6 5 4 4 4 3 2 2 1 2 3 3 4 3 4 4 4 5
3 5 1 4 5 5 6 6 7 4 2 4 4 7 6 9 9 9 9 9 9 9 9 8 8 6 5 5 4 4 4 3 3 2 1 1 2 3 3 4 4 4 5 5
5 6 3 5 6 3 2 5 6 6 5 4 4 6 4 4 5 6 7 8 8 9 8 7 6 6 6 6 5 5 5 5 4 2 1 1 2 3 3 4 4 4 4 5
5 5 6 7 7 5 4 5 6 7 5 4 7 6 4 6 7 7 8 8 8 9 8 8 7 7 7 6 6 6 5 5 4 2 1 1 2 2 2 3 4 4 4 4
5 3 5 7 7 6 7 8 8 8 9 8 8 7 9 10 10 9 8 8 8 8 8 9 8 7 7 6 5 6 5 4 4 3 3 3 2 1 1 2 3 3 4 4
4 3 1 4 5 5 5 9 10 10 8 8 6 7 8 6 6 7 8 9 9 9 9 9 9 8 8 7 7 6 6 5 4 4 4 3 2 1 1 2 3 3 4 4
3 5 2 4 5 2 6 10 11 8 8 9 10 10 6 6 9 10 10 9 9 9 9 9 9 9 9 8 8 7 6 5 5 4 4 3 2 2 2 2 2 3 4 4
7 6 4 2 2 5 10 7 9 10 9 9 8 8 10 10 9 8 9 10 9 8 8 8 8 8 7 6 7 6 5 5 5 4 4 3 3 3 2 2 3 3 3 3
6 8 4 3 3 7 9 6 6 7 7 8 9 8 8 6 5 2 4 7 9 8 8 7 7 7 6 7 7 6 5 4 4 4 4 5 4 3 3 3 4 3 2 3
5 6 6 4 2 6 9 7 3 5 4 6 9 10 9 9 5 5 4 6 6 6 6 6 6 5 6 6 6 6 5 4 5 6 6 5 5 4 4 5 4 3 2 3
2 3 4 5 5 8 9 5 4 4 8 5 8 10 10 10 8 7 7 6 6 6 6 6 7 5 4 5 6 6 4 4 6 5 4 4 4 5 5 4 3 3 3 3
9 6 6 6 5 9 7 5 7 9 4 4 8 9 9 8 7 8 9 8 8 7 6 7 7 5 3 5 6 5 3 4 3 3 3 4 4 4 3 3 4 3 3 3
8 10 8 10 10 9 7 9 8 7 6 7 8 8 10 10 9 9 8 9 8 7 7 6 7 6 3 3 5 5 3 3 3 3 3 3 3 3 3 3 4 3 3 3
5 3 3 5 8 8 7 6 6 8 8 8 8 9 11 10 10 10 9 8 7 6 6 6 7 6 3 2 2 2 2 2 2 2 2 2 2 3 3 3 3 2 3 3
6 1 2 5 7 5 6 7 8 7 7 7 7 8 11 12 10 10 9 9 8 7 6 6 7 6 4 2 2 1 0 2 2 1 1 2 2 3 3 3 3 3 3 3
6 6 5 8 9 7 9 10 9 9 9 10 9 8 8 10 11 10 9 8 8 7 6 6 6 6 4 3 2 1 1 2 3 1 1 2 2 2 2 3 3 4 4 4
Wind_Direction
162 127 181 196 186 175 166 174 233 239 205 182 220 239 235 210 198 191 190 176 170 173 169 156 144 134 118 104 88 68 59 25 19 4 351 340 331 325 330 328 332 328 329 330
85 194 203 173 163 137 140 154 238 265 217 193 227 251 240 201 199 188 178 170 165 153 150 148 141 130 124 118 94 77 71 47 24 339 287 272 285 294 299 311 324 324 326 326
166 203 169 155 147 138 162 181 207 228 283 277 181 338 292 212 177 170 168 163 161 161 162 160 146 138 133 126 116 107 111 87 26 2 348 344 344 335 335 329 324 318 322 324
190 218 149 143 169 154 204 214 206 202 90 290 146 247 280 223 172 182 181 166 164 160 158 158 152 145 148 156 144 126 129 107 340 4 11 357 341 324 302 302 307 314 319 319
199 177 153 172 195 174 204 211 196 105 101 328 334 150 277 188 198 216 204 183 171 166 162 162 160 156 162 165 154 148 132 342 328 352 4 3 332 302 302 312 322 323 319 317
214 208 173 185 199 178 151 50 34 46 66 320 244 156 233 217 209 201 197 181 174 169 165 161 159 155 161 164 153 150 145 281 317 341 354 354 323 323 330 328 329 326 319 317
8 330 229 146 100 19 81 78 30 3 9 260 253 151 232 233 199 179 179 183 182 175 166 162 162 167 173 175 176 176 180 261 303 331 340 330 304 306 313 311 315 319 320 316
127 274 240 179 166 176 163 136 153 192 226 279 341 205 254 245 180 166 168 176 178 180 177 175 177 178 184 187 188 190 196 238 292 315 310 313 305 295 299 304 304 306 302 296
158 241 278 194 160 145 135 157 172 144 192 274 312 333 326 263 184 181 183 181 187 189 185 181 181 182 186 190 199 197 190 212 267 285 289 304 309 309 308 310 311 307 307 311
147 167 257 264 72 58 147 149 100 113 145 298 306 236 225 220 223 218 208 200 201 194 186 183 184 189 193 198 202 188 180 188 220 256 280 303 308 310 314 324 328 326 326 333
134 142 304 34 198 208 153 123 111 120 150 155 235 263 225 202 205 205 210 204 197 191 188 188 192 195 193 190 183 180 181 187 216 244 287 335 321 320 333 341 331 328 334 342
142 122 187 264 284 204 172 173 144 147 215 167 181 262 262 199 201 195 201 201 195 189 187 187 188 186 187 190 188 187 191 199 220 234 268 319 318 333 348 341 332 336 340 343
123 110 79 350 337 346 191 176 152 135 126 155 174 261 294 199 204 203 193 192 188 185 185 185 184 187 194 197 197 195 196 207 218 217 228 327 331 337 339 335 335 341 344 344
117 119 159 192 217 214 230 221 167 133 158 205 215 239 251 213 213 215 203 193 187 189 187 186 193 201 203 201 197 197 206 210 204 193 196 257 287 299 311 325 340 341 342 344
111 156 210 227 235 212 214 220 197 182 186 189 223 220 229 220 208 206 198 190 187 192 193 193 196 202 204 202 200 201 209 210 196 183 201 231 246 265 305 324 333 338 343 345
112 158 250 285 265 240 236 226 209 207 201 206 217 241 237 205 177 183 186 184 189 196 198 196 194 195 199 200 199 200 209 209 192 189 212 227 233 252 286 301 320 335 339 341
147 150 145 272 291 344 268 229 208 207 204 187 211 226 202 178 189 192 192 189 193 198 196 192 193 196 198 199 192 195 203 198 188 200 217 223 224 241 270 292 318 320 320 332
149 140 144 236 14 240 247 246 202 204 219 200 197 200 189 195 197 197 186 183 193 192 187 188 191 195 198 194 191 190 184 180 187 203 214 219 217 237 264 287 295 297 303 309
151 141 134 142 229 276 289 269 184 180 238 213 191 190 182 146 93 356 213 181 184 185 180 183 184 181 179 183 182 170 172 176 189 208 218 222 215 224 243 262 273 276 288 299
88 106 125 134 190 252 257 270 188 117 262 241 181 175 160 131 145 233 216 158 153 152 157 162 159 150 161 179 163 155 170 182 210 220 222 220 212 214 230 246 257 260 260 276
129 99 145 171 214 263 257 263 99 143 237 236 180 170 161 174 193 188 162 145 142 142 148 143 136 137 162 162 144 148 165 205 226 219 214 217 220 221 230 245 253 258 269 291
185 177 188 160 192 253 244 159 180 213 222 177 166 165 164 169 156 150 154 151 146 141 139 135 131 136 146 139 134 140 190 233 219 197 204 225 236 242 237 240 264 268 268 286
201 195 189 188 211 234 217 202 210 179 175 179 168 170 155 151 161 163 163 160 158 155 151 143 140 139 137 141 136 149 221 223 190 188 223 247 261 260 256 243 261 276 268 261
269 189 167 243 263 257 243 221 197 185 184 181 171 164 159 162 168 168 166 166 165 163 159 149 139 141 152 159 145 176 222 190 163 196 250 268 278 283 281 268 257 256 263 258
248 223 214 256 277 301 286 242 213 193 172 165 166 168 167 161 166 169 169 171 170 165 159 148 148 150 151 133 113 58 84 137 148 205 290 299 291 287 292 284 259 247 246 222
225 206 208 241 241 217 242 240 215 191 188 181 170 167 169 164 164 163 166 169 163 158 151 145 144 142 138 121 91 13 33 119 125 94 343 320 316 314 309 309 317 292 265 286
Height
1500 1509 1515 1514 1513 1516 1520 1525 1527 1521 1514 1518 1520 1519 1515 1515 1517 1518 1519 1520 1521 1522 1523 1524 1524 1523 1523 1522 1520 1518 1517 1515 1513 1510 1508 1506 1504 1502 1499 1497 1496 1494 1492 1491
1506 1510 1507 1506 1509 1513 1518 1523 1524 1518 1511 1516 1519 1518 1513 1513 1514 1515 1517 1518 1519 1521 1522 1523 1523 1522 1521 1520 1519 1517 1516 1514 1512 1510 1507 1505 1503 1501 1498 1496 1494 1492 1490 1489
1507 1506 1502 1506 1511 1515 1518 1521 1520 1518 1513 1513 1517 1523 1517 1513 1514 1515 1516 1516 1517 1518 1520 1521 1521 1521 1520 1519 1518 1516 1514 1513 1511 1509 1507 1505 1502 1500 1497 1495 1493 1490 1488 1486
1505 1502 1503 1508 1511 1513 1519 1511 1511 1513 1521 1528 1521 1538 1523 1517 1516 1515 1516 1516 1517 1518 1518 1519 1519 1519 1519 1518 1517 1515 1513 1512 1510 1508 1506 1503 1501 1499 1496 1494 1491 1489 1487 1485
1505 1502 1504 1509 1507 1507 1511 1505 1508 1512 1519 1527 1525 1535 1531 1519 1519 1516 1514 1515 1515 1516 1517 1518 1518 1518 1517 1517 1516 1514 1513 1511 1509 1507 1505 1503 1501 1498 1496 1493 1490 1488 1486 1483
1501 1499 1500 1501 1500 1501 1504 1508 1514 1522 1529 1539 1526 1534 1531 1523 1516 1513 1513 1513 1514 1515 1516 1516 1517 1517 1516 1516 1515 1513 1512 1510 1508 1506 1504 1502 1500 1497 1495 1492 1489 1487 1484 1482
1507 1502 1499 1498 1503 1503 1508 1524 1541 1542 1550 1542 1524 1528 1527 1512 1508 1508 1510 1512 1513 1514 1514 1515 1515 1515 1515 1514 1514 1512 1511 1509 1508 1506 1504 1502 1499 1497 1494 1491 1488 1486 1483 1481
1517 1517 1501 1498 1501 1506 1509 1521 1541 1548 1549 1541 1525 1528 1520 1507 1507 1507 1508 1510 1511 1512 1513 1513 1513 1514 1513 1513 1512 1511 1510 1508 1507 1505 1503 1501 1499 1496 1494 1491 1488 1485 1483 1480
1515 1514 1498 1496 1496 1500 1509 1518 1519 1534 1535 1541 1535 1525 1515 1509 1509 1509 1509 1509 1510 1510 1511 1511 1512 1512 1512 1512 1511 1510 1509 1508 1506 1504 1502 1500 1498 1496 1493 1490 1488 1485 1482 1480
1503 1511 1501 1496 1496 1498 1502 1509 1523 1532 1542 1547 1536 1530 1528 1514 1510 1508 1508 1508 1508 1509 1509 1510 1510 1511 1511 1511 1510 1509 1508 1507 1505 1504 1502 1500 1497 1495 1493 1490 1487 1484 1482 1479
1499 1509 1507 1502 1503 1505 1504 1508 1520 1533 1537 1546 1545 1535 1507 1505 1504 1504 1504 1504 1505 1506 1507 1508 1509 1509 1510 1509 1509 1508 1507 1506 1505 1503 1501 1499 1497 1495 1492 1490 1487 1484 1481 1479
1498 1510 1516 1508 1499 1496 1500 1505 1516 1529 1532 1537 1543 1532 1498 1498 1498 1499 1500 1501 1503 1504 1505 1506 1507 1508 1508 1508 1508 1507 1506 1505 1504 1502 1500 1499 1496 1494 1492 1489 1486 1484 1481 1479
1497 1510 1524 1522 1514 1503 1500 1501 1508 1518 1528 1536 1540 1525 1497 1497 1498 1498 1499 1500 1501 1502 1504 1505 1505 1506 1506 1507 1506 1506 1505 1504 1503 1502 1500 1498 1496 1494 1491 1489 1486 1484 1481 1479
1494 1507 1517 1522 1516 1506 1503 1500 1502 1513 1527 1527 1523 1513 1500 1498 1497 1497 1497 1498 1499 1500 1501 1502 1503 1504 1505 1505 1505 1505 1504 1503 1502 1501 1499 1497 1495 1494 1491 1489 1486 1484 1481 1479
1493 1504 1503 1502 1499 1498 1499 1498 1499 1505 1510 1516 1509 1504 1497 1493 1492 1493 1494 1496 1497 1498 1499 1500 1501 1502 1503 1503 1503 1503 1503 1502 1501 1500 1498 1497 1495 1493 1491 1489 1487 1484 1482 1479
1494 1500 1500 1500 1495 1494 1495 1494 1495 1496 1497 1500 1499 1497 1487 1487 1489 1491 1492 1493 1494 1495 1496 1497 1499 1500 1501 1501 1502 1502 1502 1501 1500 1499 1498 1496 1495 1493 1491 1489 1487 1485 1482 1480
1496 1500 1506 1511 1500 1497 1502 1490 1490 1490 1487 1490 1496 1491 1485 1487 1487 1487 1489 1490 1491 1492 1494 1495 1496 1497 1498 1499 1500 1500 1500 1500 1499 1498 1497 1496 1494 1493 1491 1489 1487 1485 1483 1481
1494 1501 1510 1512 1506 1512 1495 1476 1477 1480 1479 1479 1479 1479 1480 1481 1483 1485 1486 1487 1489 1490 1491 1493 1494 1495 1497 1498 1498 1499 1499 1499 1498 1497 1496 1495 1494 1492 1490 1489 1487 1485 1483 1481
1485 1496 1509 1515 1514 1506 1487 1473 1473 1478 1479 1473 1474 1475 1477 1479 1482 1484 1485 1485 1486 1488 1489 1491 1492 1493 1495 1496 1497 1497 1497 1497 1497 1496 1495 1494 1493 1491 1490 1488 1487 1485 1483 1481
1488 1491 1505 1513 1511 1510 1488 1469 1466 1472 1480 1469 1469 1472 1475 1478 1487 1485 1483 1484 1485 1486 1488 1489 1491 1492 1493 1494 1495 1495 1495 1495 1495 1495 1494 1493 1492 1491 1489 1488 1486 1485 1483 1481
1494 1497 1504 1509 1510 1499 1476 1468 1469 1487 1482 1466 1466 1468 1471 1473 1476 1477 1480 1482 1483 1485 1486 1488 1489 1490 1491 1492 1493 1493 1494 1494 1494 1493 1492 1491 1491 1489 1488 1487 1486 1484 1483 1481
1493 1499 1503 1508 1509 1499 1466 1467 1471 1470 1463 1463 1464 1466 1468 1470 1473 1475 1478 1480 1482 1483 1485 1486 1487 1488 1489 1490 1491 1491 1491 1492 1491 1491 1490 1490 1489 1488 1487 1486 1484 1483 1482 1480
1484 1482 1483 1485 1482 1465 1460 1460 1460 1461 1461 1462 1463 1465 1467 1469 1471 1473 1476 1478 1480 1481 1483 1484 1485 1486 1487 1488 1489 1489 1489 1489 1489 1489 1488 1488 1487 1486 1485 1484 1483 1481 1480 1478
1475 1471 1475 1475 1467 1460 1458 1457 1458 1459 1459 1460 1461 1463 1465 1467 1469 1471 1473 1475 1477 1479 1480 1482 1483 1484 1485 1486 1486 1487 1487 1487 1487 1486 1486 1485 1485 1484 1483 1482 1480 1479 1478 1476
1471 1469 1471 1470 1463 1459 1456 1455 1455 1456 1457 1458 1460 1461 1462 1464 1466 1468 1470 1472 1474 1476 1478 1479 1481 1482 1482 1483 1484 1484 1484 1484 1484 1483 1483 1482 1482 1481 1480 1479 1478 1477 1476 1474
1464 1465 1468 1467 1458 1458 1454 1453 1453 1453 1454 1455 1456 1458 1460 1461 1463 1465 1468 1470 1472 1474 1475 1477 1478 1479 1480 1481 1481 1481 1481 1481 1481 1481 1480 1479 1479 1478 1477 1476 1475 1475 1473 1472